Powrót do katalogu

STARLINK-36299

AktywnyŁącznośćVLEO
NORAD 68534·PAYLOAD·🇺🇸 United States

Wystrzelony Mar 30, 2026 z Cape Canaveral Space Force Station

Loading…

Następne Przeloty (najbliższe 24 godziny)

TLE

ŚwieżeSource: CelesTrak SupGP

Epoka: Sep 15, 2026, 04:11 UTC

1 68534C 26068AC  26258.17479167  .00039103  00000+0  11548-2 0  2587
2 68534  53.1581 324.6738 0001148  95.8533  85.5881 15.34383978    18

Śledź STARLINK-36299 w czasie rzeczywistym z AllMySat

Download on the App Store